Location: Unspecified
(0.0000°N, 0.0000°E)
Time: 16:56:39
(UTC+00:00)

Tiros 1 despin weight - All Passes

Search period start: 26 May 2022 00:00
Search period end: 05 June 2022 00:00
Orbit: 592 x 639 km, 48.2° (Epoch: 26 May)

Date Brightness Start Highest point End Pass type
(mag) Time Alt. Az. Time Alt. Az. Time Alt. Az.
26 May - 01:53:35 10° NNE 01:56:05 15° NE 01:58:36 10° E night (unlit)
26 May - 03:33:17 10° WNW 03:37:23 38° SW 03:41:34 10° SSE night (unlit)
26 May - 14:00:15 10° S 14:04:06 25° SE 14:07:54 10° ENE daylight
26 May - 15:41:42 10° WSW 15:45:26 24° NW 15:49:08 10° N daylight
27 May - 02:07:39 10° NNW 02:11:45 38° NE 02:15:54 10° ESE night (unlit)
27 May - 03:50:36 10° W 03:53:06 15° SW 03:55:37 10° SSW night (unlit)
27 May - 14:15:08 10° SSW 14:19:45 67° SE 14:24:19 10° NE daylight
28 May - 02:23:00 10° NW 02:27:22 74° SW 02:31:50 10° SE night (unlit)
28 May - 12:51:30 10° SSE 12:53:59 14° SE 12:56:28 10° E daylight
28 May - 14:30:57 10° WSW 14:35:23 44° NW 14:39:46 10° NNE daylight
29 May - 00:58:25 10° N 01:01:43 21° NE 01:05:03 10° E night (unlit)
29 May - 02:39:19 10° WNW 02:43:02 26° SW 02:46:47 10° S night (unlit)
29 May - 13:05:26 10° SSW 13:09:42 35° SE 13:13:56 10° ENE daylight
29 May - 14:47:58 10° W 14:51:03 17° NW 14:54:06 10° N daylight
30 May - 01:13:04 10° NNW 01:17:22 56° NE 01:21:43 10° SE night (unlit)
30 May - 02:58:43 10° SW 02:58:45 10° SW 02:58:47 10° SW night (unlit)
30 May - 13:20:40 10° SW 13:25:20 85° NW 13:29:58 10° NE daylight
30 May - 23:50:18 10° NNE 23:51:39 11° NE 23:53:00 10° ENE night (unlit)
31 May - 01:28:44 10° NW 01:32:59 49° SW 01:37:16 10° SSE night (unlit)
31 May - 11:56:11 10° S 11:59:36 20° SE 12:03:00 10° E daylight
31 May - 13:36:50 10° WSW 13:40:57 31° NW 13:45:03 10° NNE daylight
01 Jun - 00:03:30 10° N 00:07:20 29° NE 00:11:10 10° ESE night (unlit)
01 Jun - 01:45:33 10° W 01:48:39 19° SW 01:51:46 10° S night (unlit)
01 Jun - 12:10:43 10° SSW 12:15:16 51° SE 12:19:46 10° NE daylight
01 Jun - 13:54:41 10° WNW 13:56:38 12° NW 13:58:34 10° NNW daylight
02 Jun - 00:18:33 10° NW 00:22:57 84° NE 00:27:22 10° SE night (unlit)
02 Jun - 10:48:10 10° SSE 10:49:27 11° SE 10:50:43 10° ESE daylight
02 Jun - 12:26:16 10° SW 12:30:52 58° NW 12:35:25 10° NNE daylight
02 Jun - 22:54:31 10° N 22:57:15 16° NE 22:59:59 10° E night (unlit)
03 Jun - 00:34:35 10° WNW 00:38:34 34° SW 00:42:34 10° SSE night (unlit)
03 Jun - 11:01:10 10° S 11:05:09 28° SE 11:09:07 10° ENE daylight
03 Jun - 12:42:51 10° WSW 12:46:30 22° NW 12:50:07 10° N daylight
03 Jun - 23:08:45 10° NNW 23:12:53 42° NE 23:17:04 10° ESE night (unlit)
04 Jun - 00:52:10 10° WSW 00:54:15 13° SW 00:56:19 10° SSW night (unlit)
04 Jun - 11:16:07 10° SW 11:20:46 74° SE 11:25:24 10° NE daylight
04 Jun - 23:24:09 10° NW 23:28:30 66° SW 23:32:52 10° SSE night (unlit)
